Terminal Aerodrome Forecast
Issued by NWS Des Moines, IA

Home | Current Version | Previous Version | Text Only | Print | Product List | Glossary On
Versions: 1 2 3 4 5 6 7 8 9 10 11 12 13 14 15 16 17 18 19 20 21 22 23 24 25 26 27 28 29 30 31 32 33 34 35 36 37 38 39 40 41
000
FTUS43 KDMX 032151 AAA
TAFALO
TAF AMD
KALO 032151Z 0322/0418 27014G23KT P6SM BKN070
     FM040100 27012KT P6SM VCSH BKN060
     FM040500 33011KT P6SM FEW050
     FM041500 34017G25KT P6SM SKC=

USA.gov is the U.S. government's official web portal to all federal, state and local government web resources and services.